Massena, NY

2:28 AM EDT on September 24, 2017 (GMT -0400)
Massena International-Richards

Weather History for KMSS - October, 2011

Change the Weather History Date:

Sunday, October 16, 2011

  Actual Average Record
Temperature  
Mean Temperature 54 °F 46 °F  
Max Temperature 59 °F 56 °F 78 °F (1954)
Min Temperature 48 °F 36 °F 21 °F (1978)
Degree Days  
Heating Degree Days 11 19  
Month to date heating degree days 160 258  
Since 1 July heating degree days 280 558  
Cooling Degree Days 0 0  
Month to date cooling degree days 2 0  
Year to date cooling degree days 566 361  
Growing Degree Days 2 (Base 50)    
Moisture  
Dew Point 41 °F    
Average Humidity 67    
Maximum Humidity 86    
Minimum Humidity 47    
Precipitation  
Precipitation 0.00 in 0.11 in 1.35 in (1989)
Month to date precipitation 0.31 1.76  
Year to date precipitation 26.70 27.95  
Sea Level Pressure  
Sea Level Pressure 29.57 in    
Wind  
Wind Speed 14 mph (SW)    
Max Wind Speed 24 mph    
Max Gust Speed 35 mph    
Visibility 10 miles    
Events Rain    
T = Trace of Precipitation, MM = Missing Value Source: NWS Daily Summary

Daily Weather History Graph

Daily Weather History Graph

Search for Another Location

Airport or City:

Trip Planner

Search our weather history database for the weather conditions in past years. The results will help you decide how hot, cold, wet, or windy it might be!

Date:

Astronomy

Oct. 16, 2011 Rise Set
Actual Time 7:15 AM EDT 6:13 PM EDT
Civil Twilight 6:46 AM EDT 6:42 PM EDT
Nautical Twilight 6:12 AM EDT 7:16 PM EDT
Astronomical Twilight 5:38 AM EDT 7:50 PM EDT
Moon 8:45 PM EDT (10/16) 11:42 AM EDT (10/16)
Length of Visible Light 11h 56m
Length of Day
10h 57m
Waning Gibbous, 82% of the Moon is Illuminated
Oct 16
Waning Gibbous
Oct 19
Last Quarter
Oct 26
New
Nov 2
First Quarter
Nov 10
Full

Hourly Weather History & Observations

Time (EDT) Temp. Dew Point Humidity Pressure Visibility Wind Dir Wind Speed Gust Speed Precip Events Conditions
12:18 AM 48.2 °F 44.6 °F 87% 29.44 in 10.0 mi SW 16.1 mph 26.5 mph N/A Rain Light Rain
12:53 AM 48.0 °F 44.1 °F 86% 29.47 in 10.0 mi SW 15.0 mph 25.3 mph N/A Rain Light Rain
1:53 AM 48.0 °F 44.1 °F 86% 29.50 in 10.0 mi SW 13.8 mph 21.9 mph N/A Rain Light Rain
2:53 AM 48.9 °F 43.0 °F 80% 29.53 in 10.0 mi SW 17.3 mph 25.3 mph N/A   Overcast
3:53 AM 50.0 °F 42.1 °F 74% 29.55 in 10.0 mi SW 15.0 mph 27.6 mph N/A   Overcast
4:53 AM 48.9 °F 41.0 °F 74% 29.58 in 10.0 mi SW 18.4 mph 24.2 mph N/A   Overcast
5:53 AM 48.9 °F 39.9 °F 71% 29.62 in 10.0 mi SW 17.3 mph 27.6 mph N/A   Overcast
6:53 AM 48.9 °F 39.0 °F 69% 29.62 in 10.0 mi SW 13.8 mph - N/A   Partly Cloudy
7:53 AM 48.0 °F 37.9 °F 68% 29.64 in 10.0 mi SW 16.1 mph 23.0 mph N/A   Partly Cloudy
8:53 AM 50.0 °F 39.0 °F 66% 29.66 in 10.0 mi SW 13.8 mph 20.7 mph N/A   Overcast
9:53 AM 52.0 °F 37.9 °F 59% 29.66 in 10.0 mi SW 12.7 mph 23.0 mph N/A   Overcast
10:53 AM 54.0 °F 37.9 °F 55% 29.64 in 10.0 mi SW 17.3 mph 24.2 mph N/A   Overcast
11:53 AM 55.0 °F 37.9 °F 53% 29.63 in 10.0 mi SW 19.6 mph 32.2 mph N/A   Overcast
12:53 PM 57.0 °F 37.9 °F 49% 29.62 in 10.0 mi SW 17.3 mph 24.2 mph N/A   Overcast
1:53 PM 57.0 °F 37.9 °F 49% 29.60 in 10.0 mi WSW 11.5 mph 26.5 mph N/A   Overcast
2:53 PM 57.9 °F 39.9 °F 51% 29.57 in 10.0 mi SW 15.0 mph 25.3 mph N/A   Overcast
3:53 PM 57.0 °F 41.0 °F 55% 29.55 in 10.0 mi SW 11.5 mph 26.5 mph N/A   Mostly Cloudy
4:53 PM 57.0 °F 41.0 °F 55% 29.54 in 10.0 mi SW 19.6 mph 27.6 mph N/A   Overcast
5:53 PM 55.0 °F 42.1 °F 62% 29.53 in 10.0 mi SSW 17.3 mph 23.0 mph N/A   Overcast
6:53 PM 53.1 °F 44.1 °F 71% 29.54 in 10.0 mi SSW 13.8 mph - N/A   Overcast
7:53 PM 52.0 °F 44.1 °F 74% 29.54 in 10.0 mi SW 15.0 mph - N/A   Overcast
8:53 PM 53.1 °F 44.1 °F 71% 29.54 in 10.0 mi SW 13.8 mph 20.7 mph N/A   Overcast
9:53 PM 52.0 °F 45.0 °F 77% 29.53 in 10.0 mi SW 10.4 mph - N/A Rain Light Rain
10:53 PM 50.0 °F 46.0 °F 86% 29.52 in 10.0 mi SW 9.2 mph - N/A   Mostly Cloudy
11:53 PM 50.0 °F 46.0 °F 86% 29.53 in 10.0 mi SSW 8.1 mph - N/A Rain Light Rain